M I D A S
Marine Information and Data Acquisition System
Tripno 383 of the Zeeleeuw from 2002-07-01 08:04:20 to 2002-07-01 15:46:00
Back to CruiseResearch ActivitiesStationsMapUnderway DataData graphs

EquipmentUnitsComments
TimeDGPSUTC
LatitudeDGPSDM.mWGS84
LongitudeDGPSDM.mWGS84
SpeedMeteo Stationm/sRelative wind speed
DirectionMeteo StationdegRelative wind direction
TemperatureMeteo Stationdeg CelciusAir temperature
PressureMeteo StationPaAtmospheric pressure
HumidityMeteo Station%Relative humidity
Missing or incorrect values are displayed as -999
Metereological data collected by the RV Zeeleeuw from 2002-07-01 08:04:20 to 2002-07-01 15:46:00
Time Latitude Longitude Speed Direction Temperature Pressure Humidity
2002-07-01 08:05 51°13.718 2°55.745 2.2 332 12.9 100510 91
2002-07-01 08:06 51°13.796 2°55.661 1.8 356 12.9 100510 91
2002-07-01 08:07 51°13.883 2°55.597 2.3 333 12.9 100510 91
2002-07-01 08:08 51°13.975 2°55.529 3.8 304 12.9 100500 91
2002-07-01 08:09 51°14.078 2°55.452 2.8 297 12.9 100500 91
2002-07-01 08:10 51°14.178 2°55.363 2.7 315 12.9 100500 91
2002-07-01 08:11 51°14.27 2°55.245 8.9 304 12.9 100500 91
2002-07-01 08:12 51°14.347 2°55.106 5.8 300 13 100490 91
2002-07-01 08:13 51°14.418 2°54.96 9.6 308 13 100490 91
2002-07-01 08:14 51°14.5 2°54.755 10.3 300 13 100470 90
2002-07-01 08:15 51°14.627 2°54.517 9.5 300 13.1 100470 91
2002-07-01 08:16 51°14.747 2°54.242 11.6 297 13.1 100460 91
2002-07-01 08:17 51°14.829 2°53.935 14.3 295 13.2 100460 91
2002-07-01 08:18 51°14.909 2°53.623 13.1 289 13.3 100450 91
2002-07-01 08:19 51°14.99 2°53.312 13.8 292 13.4 100450 91
2002-07-01 08:20 51°15.074 2°52.989 13.4 288 13.4 100450 91
2002-07-01 08:21 51°15.161 2°52.667 14.4 289 13.5 100450 91
2002-07-01 08:22 51°15.247 2°52.342 13.4 282 13.4 100440 90
2002-07-01 08:23 51°15.327 2°52.015 15.4 284 13.6 100440 90
2002-07-01 08:24 51°15.35 2°51.679 17.5 266 13.6 100410 90
2002-07-01 08:25 51°15.304 2°51.347 19.9 270 13.5 100410 89
2002-07-01 08:26 51°15.278 2°51.005 22.5 268 13.6 100410 89
2002-07-01 08:27 51°15.25 2°50.666 18.6 266 13.6 100400 89
2002-07-01 08:28 51°15.213 2°50.327 19 268 13.7 100390 89
2002-07-01 08:29 51°15.173 2°50 22 270 13.6 100380 88
2002-07-01 08:30 51°15.13 2°49.664 18.1 264 13.6 100360 88
2002-07-01 08:31 51°15.087 2°49.32 18.3 264 13.7 100400 88
2002-07-01 08:32 51°15.045 2°48.987 19.1 269 13.7 100390 87
2002-07-01 08:33 51°15.003 2°48.65 18.6 269 13.8 100380 88
2002-07-01 08:34 51°14.962 2°48.314 16.8 270 13.8 100390 87
2002-07-01 08:35 51°14.931 2°47.974 19.5 276 13.8 100400 87
2002-07-01 08:36 51°14.907 2°47.632 20.8 270 13.8 100390 87
2002-07-01 08:37 51°14.88 2°47.292 16.2 278 13.7 100410 87
2002-07-01 08:38 51°14.852 2°46.951 20.2 266 13.7 100390 87
2002-07-01 08:39 51°14.817 2°46.611 17.6 276 13.7 100400 87
2002-07-01 08:40 51°14.775 2°46.273 18.9 268 13.7 100400 87
2002-07-01 08:41 51°14.736 2°45.932 18.2 267 13.7 100410 88
2002-07-01 08:42 51°14.687 2°45.587 17.2 257 13.7 100420 88
2002-07-01 08:43 51°14.636 2°45.253 18.4 260 13.7 100420 88
2002-07-01 08:44 51°14.588 2°44.914 17.3 268 13.7 100400 88
2002-07-01 08:45 51°14.542 2°44.565 16.4 264 13.7 100400 88
2002-07-01 08:46 51°14.497 2°44.229 20.1 269 13.7 100400 89
2002-07-01 08:47 51°14.452 2°43.89 18.5 266 13.7 100400 89
2002-07-01 08:48 51°14.406 2°43.546 18.4 270 13.6 100390 89
2002-07-01 08:49 51°14.361 2°43.206 17.9 266 13.7 100390 89
2002-07-01 08:50 51°14.317 2°42.872 19.6 273 13.7 100410 89
2002-07-01 08:51 51°14.271 2°42.535 18.7 264 13.7 100380 89
2002-07-01 08:52 51°14.226 2°42.188 18.3 275 13.7 100390 89
2002-07-01 08:53 51°14.182 2°41.861 18.8 275 13.6 100400 89
2002-07-01 08:54 51°14.153 2°41.655 15.7 271 13.6 100400 89
2002-07-01 08:55 51°14.136 2°41.521 14.5 266 13.6 100410 89
2002-07-01 08:56 51°14.119 2°41.416 14.3 273 13.5 100420 89
2002-07-01 08:57 51°14.112 2°41.34 13 274 13.7 100420 90
2002-07-01 08:58 51°14.112 2°41.285 14.3 277 13.7 100410 90
2002-07-01 08:59 51°14.115 2°41.239 13.8 281 13.6 100410 90
2002-07-01 09:00 51°14.115 2°41.195 14.8 271 13.6 100410 90
2002-07-01 09:01 51°14.106 2°41.141 16.3 263 13.6 100400 90
2002-07-01 09:02 51°14.1 2°41.075 13 284 13.6 100400 90
2002-07-01 09:03 51°14.107 2°41.03 15.6 281 13.6 100420 90
2002-07-01 09:04 51°14.118 2°41.007 12.5 285 13.6 100420 90
2002-07-01 09:05 51°14.133 2°40.991 15.7 303 13.6 100410 90
2002-07-01 09:06 51°14.156 2°40.965 3.2 345 13.6 100420 90
2002-07-01 09:07 51°14.239 2°40.974 10.7 101 13.5 100440 90
2002-07-01 09:08 51°14.221 2°41.105 16.2 198 13.6 100400 90
2002-07-01 09:09 51°14.125 2°41.113 17.3 214 13.5 100390 90
2002-07-01 09:10 51°14.084 2°41.116 13.5 202 13.5 100400 90
2002-07-01 09:11 51°14.08 2°41.125 13.1 203 13.6 100390 91
2002-07-01 09:12 51°14.083 2°41.137 10.4 173 13.5 100400 90
2002-07-01 09:13 51°14.092 2°41.149 12.8 136 13.5 100400 91
2002-07-01 09:14 51°14.102 2°41.161 12.6 143 13.5 100410 91
2002-07-01 09:15 51°14.113 2°41.168 13.5 136 13.6 100410 91
2002-07-01 09:16 51°14.128 2°41.168 15.1 129 13.5 100400 91
2002-07-01 09:17 51°14.144 2°41.165 12.6 130 13.5 100400 91
2002-07-01 09:18 51°14.152 2°41.18 13.8 164 13.5 100410 91
2002-07-01 09:19 51°14.084 2°41.181 17.4 254 13.5 100390 91
2002-07-01 09:20 51°14.063 2°41.099 15 270 13.5 100380 91
2002-07-01 09:21 51°14.066 2°41.059 14.4 273 13.5 100390 91
2002-07-01 09:22 51°14.077 2°41.034 12.7 294 13.6 100410 92
2002-07-01 09:23 51°14.091 2°41.016 12.9 299 13.5 100400 91
2002-07-01 09:24 51°14.106 2°41.008 4.4 312 13.6 100420 92
2002-07-01 09:25 51°14.119 2°41.002 3 314 13.6 100420 92
2002-07-01 09:26 51°14.132 2°40.997 2.7 347 13.6 100420 91
2002-07-01 09:27 51°14.135 2°41.012 9.9 354 13.6 100430 91
2002-07-01 09:28 51°14.135 2°41.022 12.9 12 13.6 100430 92
2002-07-01 09:29 51°14.142 2°41.027 12.1 7 13.5 100430 91
2002-07-01 09:30 51°14.148 2°41.029 11.6 8 13.5 100430 91
2002-07-01 09:31 51°14.151 2°41.037 12.7 359 13.5 100440 91
2002-07-01 09:32 51°14.152 2°41.048 13.6 6 13.5 100440 91
2002-07-01 09:33 51°14.152 2°41.054 12.9 25 13.5 100430 91
2002-07-01 09:34 51°14.151 2°41.058 12.8 25 13.4 100430 91
2002-07-01 09:35 51°14.151 2°41.059 15.6 27 13.5 100440 91
2002-07-01 09:36 51°14.151 2°41.062 13.9 21 13.5 100430 91
2002-07-01 09:37 51°14.148 2°41.066 13.8 32 13.5 100420 91
2002-07-01 09:38 51°14.147 2°41.067 15 28 13.5 100440 91
2002-07-01 09:39 51°14.147 2°41.068 15.3 31 13.5 100420 91
2002-07-01 09:40 51°14.148 2°41.067 10.7 22 13.4 100450 90
2002-07-01 09:41 51°14.146 2°41.07 12.1 26 13.5 100440 90
2002-07-01 09:42 51°14.144 2°41.07 11.9 27 13.6 100440 91
2002-07-01 09:43 51°14.142 2°41.069 11.9 46 13.6 100420 91
2002-07-01 09:44 51°14.144 2°41.066 13.3 126 13.6 100410 90
2002-07-01 09:45 51°14.148 2°41.063 12.8 49 13.5 100420 90
2002-07-01 09:46 51°14.152 2°41.058 11.4 38 13.5 100430 90
2002-07-01 09:47 51°14.149 2°41.055 13.9 36 13.7 100410 91
2002-07-01 09:48 51°14.144 2°41.049 12.3 58 13.6 100410 91
2002-07-01 09:49 51°14.159 2°41.057 12.6 81 13.5 100420 90
2002-07-01 09:50 51°14.173 2°41.086 12.8 130 13.6 100420 91
2002-07-01 09:51 51°14.175 2°41.112 14.7 145 13.6 100440 91
2002-07-01 09:52 51°14.17 2°41.133 14.6 155 13.6 100400 91
2002-07-01 09:53 51°14.151 2°41.158 17 194 13.5 100410 91
2002-07-01 09:54 51°14.114 2°41.153 16.3 232 13.5 100340 91
2002-07-01 09:55 51°14.09 2°41.124 16.9 242 13.5 100380 91
2002-07-01 09:56 51°14.085 2°41.101 14.1 270 13.4 100370 91
2002-07-01 09:57 51°14.095 2°41.08 16.4 290 13.5 100350 91
2002-07-01 09:58 51°14.112 2°41.061 4.8 322 13.5 100360 91
2002-07-01 09:59 51°14.13 2°41.04 3.1 328 13.5 100380 91
2002-07-01 10:00 51°14.149 2°41.01 10.6 306 13.6 100390 91
2002-07-01 10:01 51°14.106 2°40.851 18.1 238 13.7 100330 91
2002-07-01 10:02 51°13.943 2°40.642 20.1 239 13.7 100340 91
2002-07-01 10:03 51°13.767 2°40.402 24.4 242 13.8 100340 91
2002-07-01 10:04 51°13.581 2°40.175 23 240 13.7 100320 90
2002-07-01 10:05 51°13.4 2°39.947 22.3 238 13.6 100330 90
2002-07-01 10:06 51°13.215 2°39.714 22.7 241 13.7 100320 90
2002-07-01 10:07 51°13.027 2°39.473 22.3 241 13.8 100350 91
2002-07-01 10:08 51°12.852 2°39.232 22.8 243 13.7 100320 90
2002-07-01 10:09 51°12.672 2°38.985 23.6 241 13.6 100310 90
2002-07-01 10:10 51°12.496 2°38.745 20.4 244 13.7 100340 90
2002-07-01 10:11 51°12.314 2°38.494 22.3 241 13.7 100310 90
2002-07-01 10:12 51°12.135 2°38.249 25 238 13.6 100300 90
2002-07-01 10:13 51°11.955 2°38.001 21.8 248 13.7 100320 90
2002-07-01 10:14 51°11.783 2°37.751 19.1 243 13.8 100320 90
2002-07-01 10:15 51°11.604 2°37.491 22 245 13.8 100320 90
2002-07-01 10:16 51°11.429 2°37.236 23.8 242 13.7 100320 89
2002-07-01 10:17 51°11.257 2°36.989 22.4 247 13.7 100330 89
2002-07-01 10:18 51°11.079 2°36.733 24.7 249 13.7 100320 89
2002-07-01 10:19 51°10.905 2°36.48 23.2 242 13.7 100320 89
2002-07-01 10:20 51°10.731 2°36.227 22 236 13.7 100340 89
2002-07-01 10:21 51°10.558 2°35.973 21.9 245 13.7 100320 89
2002-07-01 10:22 51°10.391 2°35.703 21.8 249 13.8 100310 88
2002-07-01 10:23 51°10.226 2°35.43 21.5 250 13.8 100310 88
2002-07-01 10:24 51°10.08 2°35.132 21.3 253 13.8 100310 88
2002-07-01 10:25 51°9.941 2°34.825 19.8 254 13.7 100310 88
2002-07-01 10:26 51°9.801 2°34.515 22.7 248 13.8 100320 88
2002-07-01 10:27 51°9.663 2°34.207 22.4 254 13.7 100290 88
2002-07-01 10:28 51°9.519 2°33.887 21.5 254 13.8 100320 88
2002-07-01 10:29 51°9.381 2°33.576 21.7 253 13.8 100310 88
2002-07-01 10:30 51°9.238 2°33.254 21.5 254 13.8 100300 88
2002-07-01 10:31 51°9.116 2°32.983 16.7 256 13.8 100300 87
2002-07-01 10:32 51°9.025 2°32.776 16.8 258 13.8 100310 87
2002-07-01 10:33 51°8.991 2°32.647 16.4 300 13.9 100320 88
2002-07-01 10:34 51°9.039 2°32.572 10.2 32 13.9 100350 88
2002-07-01 10:35 51°9.086 2°32.607 11 102 13.9 100390 87
2002-07-01 10:36 51°9.094 2°32.663 10.2 134 13.8 100390 87
2002-07-01 10:37 51°9.087 2°32.712 12.1 145 13.8 100350 88
2002-07-01 10:38 51°9.072 2°32.753 13.7 152 13.8 100330 87
2002-07-01 10:39 51°9.062 2°32.79 10.3 129 13.7 100350 88
2002-07-01 10:40 51°9.059 2°32.826 10.8 129 13.8 100360 89
2002-07-01 10:41 51°9.061 2°32.855 12.8 118 13.8 100350 89
2002-07-01 10:42 51°9.067 2°32.88 11.3 113 13.8 100360 89
2002-07-01 10:43 51°9.073 2°32.902 11.5 102 13.8 100360 88
2002-07-01 10:44 51°9.079 2°32.923 12 107 13.9 100360 89
2002-07-01 10:45 51°9.101 2°32.955 9.6 53 13.8 100350 89
2002-07-01 10:46 51°9.158 2°32.894 12.4 301 13.8 100370 89
2002-07-01 10:47 51°9.145 2°32.766 15.5 269 13.9 100360 89
2002-07-01 10:48 51°9.127 2°32.7 15 257 13.8 100330 89
2002-07-01 10:49 51°9.117 2°32.661 15.9 260 13.8 100300 89
2002-07-01 10:50 51°9.114 2°32.634 14.1 252 13.7 100320 88
2002-07-01 10:51 51°9.114 2°32.606 14.5 264 13.7 100300 88
2002-07-01 10:52 51°9.096 2°32.565 14.1 222 13.6 100310 88
2002-07-01 10:53 51°9.072 2°32.563 13.8 171 13.6 100330 88
2002-07-01 10:54 51°9.061 2°32.576 13.2 148 13.8 100330 89
2002-07-01 10:55 51°9.051 2°32.591 12.2 145 13.8 100320 88
2002-07-01 10:56 51°9.042 2°32.606 13.1 140 13.8 100330 88
2002-07-01 10:57 51°9.035 2°32.622 11.2 147 13.8 100340 89
2002-07-01 10:58 51°9.028 2°32.642 13.3 137 13.9 100340 88
2002-07-01 10:59 51°9.023 2°32.667 11.7 122 13.8 100350 88
2002-07-01 11:00 51°9.021 2°32.694 13.1 123 13.8 100340 88
2002-07-01 11:01 51°9.024 2°32.722 12.8 114 13.8 100350 88
2002-07-01 11:02 51°9.036 2°32.758 10.8 72 13.8 100350 88
2002-07-01 11:03 51°9.068 2°32.776 8.8 35 13.9 100380 89
2002-07-01 11:04 51°9.096 2°32.763 13.4 16 14 100390 89
2002-07-01 11:05 51°9.12 2°32.74 8.9 354 13.9 100390 88
2002-07-01 11:06 51°9.132 2°32.72 10.2 348 13.9 100390 89
2002-07-01 11:07 51°9.122 2°32.727 13.4 9 13.9 100390 88
2002-07-01 11:08 51°9.117 2°32.727 13.5 24 13.9 100380 88
2002-07-01 11:09 51°9.117 2°32.724 14.9 8 13.9 100380 88
2002-07-01 11:10 51°9.121 2°32.719 11.5 4 13.8 100380 88
2002-07-01 11:11 51°9.123 2°32.71 2.3 341 13.9 100360 89
2002-07-01 11:12 51°9.125 2°32.704 4.2 333 13.9 100360 89
2002-07-01 11:13 51°9.127 2°32.702 5 331 13.9 100370 88
2002-07-01 11:14 51°9.128 2°32.702 7.4 342 13.9 100350 89
2002-07-01 11:15 51°9.128 2°32.702 2.6 327 13.9 100360 88
2002-07-01 11:16 51°9.132 2°32.698 9.4   13.8 100320 88
2002-07-01 11:17 51°9.145 2°32.679 11.7 352 13.8 100320 88
2002-07-01 11:18 51°9.17 2°32.651 11.7 344 13.8 100330 88
2002-07-01 11:19 51°9.208 2°32.639 10.2 52 13.7 100330 88
2002-07-01 11:20 51°9.234 2°32.718 12.3 142 13.8 100350 88
2002-07-01 11:21 51°9.212 2°32.78 14.5 158 13.8 100340 88
2002-07-01 11:22 51°9.189 2°32.806 9.5 177 13.8 100320 88
2002-07-01 11:23 51°9.171 2°32.817 10.1 187 13.9 100310 88
2002-07-01 11:24 51°9.156 2°32.822 13.2 190 13.9 100320 88
2002-07-01 11:25 51°9.127 2°32.82 14.5 226 13.9 100280 88
2002-07-01 11:26 51°9.076 2°32.759 15.7 254 13.8 100310 88
2002-07-01 11:27 51°8.981 2°32.702 15.3 216 13.9 100270 88
2002-07-01 11:28 51°8.812 2°32.735 17.3 205 13.9 100270 88
2002-07-01 11:29 51°8.621 2°32.835 15.4 206 13.9 100260 88
2002-07-01 11:30 51°8.421 2°32.844 19.2 217 13.8 100290 88
2002-07-01 11:31 51°8.271 2°32.833 18.8 219 13.8 100290 88
2002-07-01 11:32 51°8.131 2°32.832 13.8 224 13.8 100280 88
2002-07-01 11:33 51°8.034 2°32.807 12.4 188 13.8 100300 88
2002-07-01 11:34 51°7.996 2°32.872 10 111 13.8 100300 88
2002-07-01 11:35 51°8.019 2°32.965 11.7 106 13.8 100320 88
2002-07-01 11:36 51°8.019 2°33.003 11.8 121 13.8 100300 88
2002-07-01 11:37 51°8.021 2°33.036 10.4 102 13.8 100310 88
2002-07-01 11:38 51°8.036 2°33.068 10.5 72 13.8 100310 88
2002-07-01 11:39 51°8.065 2°33.068 12.3 14 13.9 100330 89
2002-07-01 11:40 51°8.091 2°33.032 4.9 332 13.9 100330 88
2002-07-01 11:41 51°8.101 2°32.994 2.8 329 13.9 100330 88
2002-07-01 11:42 51°8.107 2°32.962 2 342 13.9 100330 88
2002-07-01 11:43 51°8.104 2°32.952 5 342 13.9 100330 89
2002-07-01 11:44 51°8.092 2°32.955 8.2 5 14 100310 89
2002-07-01 11:45 51°8.078 2°32.952 10.5 26 14 100330 88
2002-07-01 11:46 51°8.066 2°32.945 11.8 22 14 100330 88
2002-07-01 11:47 51°8.056 2°32.937 11.1 32 13.9 100330 88
2002-07-01 11:48 51°8.047 2°32.927 12 37 14.1 100320 89
2002-07-01 11:49 51°8.04 2°32.917 9.9 45 14.1 100330 88
2002-07-01 11:50 51°8.033 2°32.906 11.3 24 14.1 100320 89
2002-07-01 11:51 51°8.032 2°32.894 11.2 23 14.1 100310 89
2002-07-01 11:52 51°8.054 2°32.879 9.2 321 14 100310 88
2002-07-01 11:53 51°8.083 2°32.923 8.9 109 14.1 100280 88
2002-07-01 11:54 51°8.091 2°32.981 9.6 114 14.1 100270 88
2002-07-01 11:55 51°8.088 2°33.039 10.8 128 14.1 100270 88
2002-07-01 11:56 51°8.079 2°33.076 11.9 140 14 100270 88
2002-07-01 11:57 51°8.067 2°33.098 11 145 14 100270 88
2002-07-01 11:58 51°8.056 2°33.108 9.6 141 14.1 100260 88
2002-07-01 11:59 51°8.046 2°33.111 12.2 149 14.1 100270 89
2002-07-01 12:00 51°8.039 2°33.111 10.8 146 14.1 100270 88
2002-07-01 12:01 51°8.036 2°33.104 10.2 147 14.1 100260 88
2002-07-01 12:02 51°8.04 2°33.085 14.2 138 14.1 100260 88
2002-07-01 12:03 51°8.044 2°33.063 10.7 117 14.1 100260 88
2002-07-01 12:04 51°8.048 2°33.066 12.1 91 14.1 100270 88
2002-07-01 12:05 51°8.102 2°33.073 4.2 337 14.1 100280 88
2002-07-01 12:06 51°8.186 2°33.008 8.2 3 14.1 100290 88
2002-07-01 12:07 51°8.245 2°32.971 10 8 14.2 100290 88
2002-07-01 12:08 51°8.279 2°32.927 3.1 341 14.1 100290 88
2002-07-01 12:09 51°8.299 2°32.888 2.8 331 14.1 100270 89
2002-07-01 12:10 51°8.311 2°32.857 1.6 330 14.1 100290 88
2002-07-01 12:11 51°8.318 2°32.831 5.3 305 14.1 100280 88
2002-07-01 12:12 51°8.326 2°32.811 8 317 14.1 100270 88
2002-07-01 12:13 51°8.334 2°32.796 6.7 305 14.1 100290 88
2002-07-01 12:14 51°8.341 2°32.782 4.4 338 14.2 100270 89
2002-07-01 12:15 51°8.349 2°32.769 4.1 327 14.2 100270 89
2002-07-01 12:16 51°8.357 2°32.757 5.2 316 14.2 100260 89
2002-07-01 12:17 51°8.364 2°32.745 2.7 345 14.1 100270 89
2002-07-01 12:18 51°8.371 2°32.733 2.5 326 14.2 100270 89
2002-07-01 12:19 51°8.379 2°32.718 2.8 325 14.3 100250 89
2002-07-01 12:20 51°8.387 2°32.7 5.9 294 14.2 100260 89
2002-07-01 12:21 51°8.395 2°32.685 3.2 304 14.1 100260 89
2002-07-01 12:22 51°8.403 2°32.667 6.8 315 14.1 100260 89
2002-07-01 12:23 51°8.412 2°32.633 6.8 316 14.2 100240 89
2002-07-01 12:24 51°8.42 2°32.607 8.3 317 14.3 100210 90
2002-07-01 12:25 51°8.43 2°32.578 4 314 14.1 100210 89
2002-07-01 12:26 51°8.44 2°32.551 5.1 330 14.2 100210 89
2002-07-01 12:27 51°8.447 2°32.527 5.8 318 14.2 100210 89
2002-07-01 12:28 51°8.453 2°32.506 5.5 318 14.3 100200 90
2002-07-01 12:29 51°8.459 2°32.486 4.2 322 14.3 100210 90
2002-07-01 12:30 51°8.466 2°32.47 1.7 319 14.2 100200 89
2002-07-01 12:31 51°8.473 2°32.454 6.6 318 14.2 100200 90
2002-07-01 12:32 51°8.482 2°32.439 1.6 349 14.1 100200 89
2002-07-01 12:33 51°8.488 2°32.424 3.5 338 14.1 100190 89
2002-07-01 12:34 51°8.496 2°32.408 5.5 314 14.1 100180 89
2002-07-01 12:35 51°8.503 2°32.389 3.8 326 14.1 100190 89
2002-07-01 12:36 51°8.511 2°32.369 4.1 320 14.2 100200 89
2002-07-01 12:37 51°8.519 2°32.35 3.5 321 14.2 100190 89
2002-07-01 12:38 51°8.526 2°32.332 4.2 326 14.2 100200 89
2002-07-01 12:39 51°8.534 2°32.315 8.7 307 14.2 100210 89
2002-07-01 12:40 51°8.541 2°32.3 2.6 320 14.1 100200 89
2002-07-01 12:41 51°8.548 2°32.285 3.9 333 14 100190 89
2002-07-01 12:42 51°8.555 2°32.27 5.2 306 14 100190 89
2002-07-01 12:43 51°8.562 2°32.255 3.3 331 14.1 100180 89
2002-07-01 12:44 51°8.569 2°32.239 2.6 316 14.1 100200 89
2002-07-01 12:45 51°8.576 2°32.225 2.9 338 14.2 100200 89
2002-07-01 12:46 51°8.582 2°32.213 2.5 325 14.2 100190 90
2002-07-01 12:47 51°8.586 2°32.203 1.4 334 14.2 100200 90
2002-07-01 12:48 51°8.588 2°32.201 4.3 334 14.3 100190 90
2002-07-01 12:49 51°8.587 2°32.205 11.1 355 14.2 100190 89
2002-07-01 12:50 51°8.587 2°32.205 11 4 14.1 100190 90
2002-07-01 12:51 51°8.587 2°32.204 9.8 338 14.1 100180 90
2002-07-01 12:52 51°8.588 2°32.202 11.9 354 14.2 100170 90
2002-07-01 12:53 51°8.587 2°32.207 5.9 327 14.2 100170 90
2002-07-01 12:54 51°8.586 2°32.211 12.6 358 14.2 100180 90
2002-07-01 12:55 51°8.586 2°32.215 5.3 4 14.1 100170 90
2002-07-01 12:56 51°8.587 2°32.218 8.7 342 14.1 100160 90
2002-07-01 12:57 51°8.588 2°32.22 3.8 342 14.1 100170 90
2002-07-01 12:58 51°8.589 2°32.224 5.1 338 14.2 100170 90
2002-07-01 12:59 51°8.589 2°32.229 5 343 14.1 100160 90
2002-07-01 13:00 51°8.59 2°32.231 5.9 338 14.1 100160 90
2002-07-01 13:01 51°8.59 2°32.236 3.8 325 14 100170 90
2002-07-01 13:02 51°8.591 2°32.24 2.6 327 14.1 100170 90
2002-07-01 13:03 51°8.59 2°32.244 1.6 347 14.2 100170 91
2002-07-01 13:04 51°8.591 2°32.247 3.1 333 14.2 100170 91
2002-07-01 13:05 51°8.591 2°32.252 2.5 324 14.1 100160 91
2002-07-01 13:06 51°8.592 2°32.256 2.5 326 14.1 100150 91
2002-07-01 13:07 51°8.593 2°32.262 2.5 343 14 100160 91
2002-07-01 13:08 51°8.593 2°32.268 2.7 325 14.1 100160 91
2002-07-01 13:09 51°8.593 2°32.271 3.6 324 14.2 100170 91
2002-07-01 13:10 51°8.594 2°32.274 3 328 14.1 100160 91
2002-07-01 13:11 51°8.597 2°32.276 4.1 342 14.1 100150 91
2002-07-01 13:12 51°8.599 2°32.279 4.7 326 14.1 100160 91
2002-07-01 13:13 51°8.602 2°32.28 6.9 303 14.2 100160 91
2002-07-01 13:14 51°8.605 2°32.279 11.7 307 14.1 100140 91
2002-07-01 13:15 51°8.61 2°32.277 10.3 306 14.1 100140 91
2002-07-01 13:16 51°8.613 2°32.277 12.5 300 14.1 100140 91
2002-07-01 13:17 51°8.615 2°32.278 14.5 292 14.2 100140 91
2002-07-01 13:18 51°8.618 2°32.274 12 278 14.2 100130 91
2002-07-01 13:19 51°8.621 2°32.265 13.9 275 14.2 100140 91
2002-07-01 13:20 51°8.624 2°32.26 12.6 264 14.1 100120 91
2002-07-01 13:21 51°8.625 2°32.258 12.5 245 14.1 100130 91
2002-07-01 13:22 51°8.625 2°32.258 10.4 233 14.2 100160 91
2002-07-01 13:23 51°8.626 2°32.261 12.1 209 14.2 100140 91
2002-07-01 13:24 51°8.623 2°32.265 11.4 199 14.2 100130 91
2002-07-01 13:25 51°8.621 2°32.271 12 187 14.2 100130 90
2002-07-01 13:26 51°8.618 2°32.277 12.1 199 14.4 100130 91
2002-07-01 13:27 51°8.617 2°32.281 11.7 207 14.4 100130 90
2002-07-01 13:28 51°8.619 2°32.283 12 200 14.3 100130 89
2002-07-01 13:29 51°8.618 2°32.287 13.2 202 14.3 100130 89
2002-07-01 13:30 51°8.615 2°32.292 12.4 214 14.3 100120 89
2002-07-01 13:31 51°8.615 2°32.294 13.1 222 14.3 100120 88
2002-07-01 13:32 51°8.614 2°32.295 14 225 14.4 100140 89
2002-07-01 13:33 51°8.607 2°32.289 13 240 14.3 100120 88
2002-07-01 13:34 51°8.602 2°32.282 11.2 263 14.4 100120 89
2002-07-01 13:35 51°8.599 2°32.266 12.8 267 14.5 100120 89
2002-07-01 13:36 51°8.597 2°32.246 14.1 253 14.5 100090 89
2002-07-01 13:37 51°8.588 2°32.236 13.7 228 14.4 100130 88
2002-07-01 13:38 51°8.588 2°32.245 12.6 192 14.4 100110 88
2002-07-01 13:39 51°8.596 2°32.256 13.1 163 14.3 100100 88
2002-07-01 13:40 51°8.605 2°32.268 11.3 146 14.5 100110 89
2002-07-01 13:41 51°8.615 2°32.28 10.6 132 14.5 100110 89
2002-07-01 13:42 51°8.621 2°32.304 11.9 123 14.5 100120 89
2002-07-01 13:43 51°8.632 2°32.473 9.8 134 14.6 100120 89
2002-07-01 13:44 51°8.694 2°32.812 10.4 134 14.5 100130 89
2002-07-01 13:45 51°8.733 2°33.171 11.2 137 14.6 100120 89
2002-07-01 13:46 51°8.765 2°33.534 10.7 145 14.6 100130 89
2002-07-01 13:47 51°8.79 2°33.905 11.1 146 14.6 100130 89
2002-07-01 13:48 51°8.82 2°34.277 11 145 14.5 100130 88
2002-07-01 13:49 51°8.853 2°34.647 11.4 144 14.6 100120 89
2002-07-01 13:50 51°8.88 2°35.016 13.5 156 14.6 100130 89
2002-07-01 13:51 51°8.916 2°35.383 11.1 142 14.5 100130 89
2002-07-01 13:52 51°8.945 2°35.747 11.3 140 14.6 100120 89
2002-07-01 13:53 51°8.979 2°36.121 12.3 135 14.6 100120 89
2002-07-01 13:54 51°9.013 2°36.493 12.1 141 14.6 100120 89
2002-07-01 13:55 51°9.049 2°36.865 9.6 154 14.5 100120 89
2002-07-01 13:56 51°9.067 2°37.141 12.3 120 14.5 100120 89
2002-07-01 13:57 51°9.09 2°37.272 12.2 133 14.5 100130 89
2002-07-01 13:58 51°9.092 2°37.321 10.1 146 14.5 100130 89
2002-07-01 13:59 51°9.094 2°37.354 10.7 154 14.5 100110 89
2002-07-01 14:00 51°9.103 2°37.374 11 158 14.5 100110 89
2002-07-01 14:01 51°9.119 2°37.374 12 119 14.6 100110 89
2002-07-01 14:02 51°9.132 2°37.368 11.4 97 14.5 100110 89
2002-07-01 14:03 51°9.13 2°37.338 10.7 83 14.5 100100 89
2002-07-01 14:04 51°9.125 2°37.322 13.1 83 14.6 100100 89
2002-07-01 14:05 51°9.124 2°37.318 9.5 69 14.6 100110 89
2002-07-01 14:06 51°9.125 2°37.323 11.2 69 14.6 100110 88
2002-07-01 14:07 51°9.13 2°37.334 11.3 77 14.5 100100 88
2002-07-01 14:08 51°9.135 2°37.345 11.3 86 14.6 100100 88
2002-07-01 14:09 51°9.142 2°37.353 12 92 14.6 100100 88
2002-07-01 14:10 51°9.146 2°37.349 10.8 87 14.5 100100 88
2002-07-01 14:11 51°9.145 2°37.342 11.5 78 14.7 100100 88
2002-07-01 14:12 51°9.146 2°37.346 10.9 75 14.6 100080 87
2002-07-01 14:13 51°9.143 2°37.346 11.5 63 14.7 100090 88
2002-07-01 14:14 51°9.139 2°37.346 11.4 78 14.7 100090 88
2002-07-01 14:15 51°9.139 2°37.352 10.9 84 14.8 100090 88
2002-07-01 14:16 51°9.144 2°37.365 9.8 83 14.7 100090 87
2002-07-01 14:17 51°9.151 2°37.375 12 88 14.7 100070 87
2002-07-01 14:18 51°9.158 2°37.38 12.4 83 14.7 100080 87
2002-07-01 14:19 51°9.16 2°37.38 14.8 69 14.7 100080 87
2002-07-01 14:20 51°9.145 2°37.362 12.5 55 14.8 100080 87
2002-07-01 14:21 51°9.117 2°37.338 12.8 67 14.9 100080 87
2002-07-01 14:22 51°9.12 2°37.374 13 125 14.8 100070 87
2002-07-01 14:23 51°9.079 2°37.482 14.4 214 14.8 100080 86
2002-07-01 14:24 51°9.023 2°37.43 12 272 14.8 100060 87
2002-07-01 14:25 51°9.024 2°37.395 11.1 295 15 100060 87
2002-07-01 14:26 51°9.035 2°37.377 13.1 302 15 100060 87
2002-07-01 14:27 51°9.05 2°37.363 4.2 305 15 100060 87
2002-07-01 14:28 51°9.076 2°37.349 8.9 355 15 100070 87
2002-07-01 14:29 51°9.11 2°37.349 11.7 355 15 100060 87
2002-07-01 14:30 51°9.145 2°37.354 9.8 10 14.9 100060 86
2002-07-01 14:31 51°9.185 2°37.367 9.1 20 15 100060 87
2002-07-01 14:32 51°9.228 2°37.392 9.7 29 15.1 100070 87
2002-07-01 14:33 51°9.266 2°37.438 10.1 66 15 100090 86
2002-07-01 14:34 51°9.293 2°37.502 11.4 113 15 100080 86
2002-07-01 14:35 51°9.307 2°37.577 11.4 119 15 100070 86
2002-07-01 14:36 51°9.344 2°37.695 10 94 15 100090 86
2002-07-01 14:37 51°9.429 2°37.938 7.8 117 15 100060 87
2002-07-01 14:38 51°9.553 2°38.282 6.6 114 15 100070 86
2002-07-01 14:39 51°9.676 2°38.632 6.7 121 15 100060 86
2002-07-01 14:40 51°9.802 2°38.979 10.2 121 15.1 100050 87
2002-07-01 14:41 51°9.925 2°39.329 8.4 123 15 100060 86
2002-07-01 14:42 51°10.041 2°39.689 7.6 121 15 100060 87
2002-07-01 14:43 51°10.146 2°40.06 9.7 127 15 100060 86
2002-07-01 14:44 51°10.253 2°40.427 6.1 124 15 100060 87
2002-07-01 14:45 51°10.358 2°40.782 8.2 134 15.1 100050 87
2002-07-01 14:46 51°10.466 2°41.144 9.4 118 15 100050 87
2002-07-01 14:47 51°10.572 2°41.513 8.9 133 15 100040 87
2002-07-01 14:48 51°10.67 2°41.884 9.4 134 15 100040 87
2002-07-01 14:49 51°10.775 2°42.251 9.4 113 15 100050 87
2002-07-01 14:50 51°10.881 2°42.627 9.4 131 15 100030 87
2002-07-01 14:51 51°10.977 2°43.001 9.1 147 15 100040 87
2002-07-01 14:52 51°11.071 2°43.38 8.5 124 15 100030 87
2002-07-01 14:53 51°11.166 2°43.755 6.4 151 15 100030 87
2002-07-01 14:54 51°11.259 2°44.134 8.2 145 15 100030 87
2002-07-01 14:55 51°11.356 2°44.506 8.7 138 15 100030 87
2002-07-01 14:56 51°11.448 2°44.874 8.1 136 15 100020 87
2002-07-01 14:57 51°11.548 2°45.248 7 138 15.1 100030 87
2002-07-01 14:58 51°11.649 2°45.619 5.6 141 15 100020 87
2002-07-01 14:59 51°11.749 2°45.99 7.4 145 15 100020 87
2002-07-01 15:00 51°11.842 2°46.369 6.7 144 15 100020 87
2002-07-01 15:01 51°11.944 2°46.75 7.9 143 15 100020 87
2002-07-01 15:02 51°12.046 2°47.126 8.2 133 15.1 100030 87
2002-07-01 15:03 51°12.147 2°47.503 10.3 137 15.1 100020 87
2002-07-01 15:04 51°12.247 2°47.88 8.4 148 15.1 100020 87
2002-07-01 15:05 51°12.348 2°48.257 7.4 147 15 100010 87
2002-07-01 15:06 51°12.451 2°48.631 7.7 142 15.1 100000 87
2002-07-01 15:07 51°12.558 2°49.005 10.4 150 15.1 100000 87
2002-07-01 15:08 51°12.653 2°49.388 9 145 15.1 100000 87
2002-07-01 15:09 51°12.752 2°49.765 8.1 141 15.1 100010 87
2002-07-01 15:10 51°12.848 2°50.144 8 145 15 100000 87
2002-07-01 15:11 51°12.951 2°50.518 8.1 144 15 100000 87
2002-07-01 15:12 51°13.057 2°50.894 8.5 144 15 100000 87
2002-07-01 15:13 51°13.162 2°51.272 9.1 134 15 99990 87
2002-07-01 15:14 51°13.282 2°51.637 8 145 14.9 100000 88
2002-07-01 15:15 51°13.406 2°51.998 10.2 146 14.9 99990 88
2002-07-01 15:16 51°13.529 2°52.349 7.7 131 14.9 100000 88
2002-07-01 15:17 51°13.648 2°52.713 7.1 140 14.9 100000 88
2002-07-01 15:18 51°13.78 2°53.066 5.9 150 14.9 100000 88
2002-07-01 15:19 51°13.932 2°53.402 5.3 139 14.9 100000 88
2002-07-01 15:20 51°14.107 2°53.721 5.4 122 14.9 100000 89
2002-07-01 15:21 51°14.271 2°54.031 7.3 131 14.8 100000 89
2002-07-01 15:22 51°14.363 2°54.257 11.1 123 14.8 99980 88
2002-07-01 15:23 51°14.388 2°54.327 9.8 125 14.8 99980 88
2002-07-01 15:24 51°14.408 2°54.345 10.2 97 14.8 99980 89
2002-07-01 15:25 51°14.416 2°54.333 10.3 87 14.7 99970 88
2002-07-01 15:26 51°14.434 2°54.352 11.2 89 14.7 99990 89
2002-07-01 15:27 51°14.456 2°54.565 9.6 150 14.7 99970 89
2002-07-01 15:28 51°14.401 2°54.878 12.1 188 14.8 99950 89
2002-07-01 15:29 51°14.312 2°55.161 7.1 177 14.7 99960 89
2002-07-01 15:30 51°14.22 2°55.327 5.6 223 14.7 99980 89
2002-07-01 15:31 51°14.142 2°55.399 7.2 190 14.7 99970 89
2002-07-01 15:32 51°14.08 2°55.449 4.6 178 14.7 99980 89
2002-07-01 15:33 51°14.02 2°55.493 7 213 14.7 99980 89
2002-07-01 15:34 51°13.956 2°55.544 7.9 205 14.6 99980 89
2002-07-01 15:35 51°13.887 2°55.597 6.8 216 14.7 99980 89
2002-07-01 15:36 51°13.809 2°55.662 7.8 227 14.7 99970 89
2002-07-01 15:37 51°13.743 2°55.75 10.9 191 14.7 99980 89
2002-07-01 15:38 51°13.695 2°55.849 6.1 152 14.7 99990 89
2002-07-01 15:39 51°13.658 2°55.934 3.5 172 14.7 99980 89
2002-07-01 15:40 51°13.629 2°56.002 7.9 125 14.7 99990 89
2002-07-01 15:41 51°13.609 2°56.063 3.3 163 14.7 99980 88
2002-07-01 15:42 51°13.599 2°56.09 7.1 147 14.7 99980 88
2002-07-01 15:43 51°13.597 2°56.096 5.4 142 14.7 99980 88
2002-07-01 15:44 51°13.597 2°56.097 5.1 161 14.7 99980 88
2002-07-01 15:45 51°13.597 2°56.097 4.6 150 14.8 99990 89